Location: Boussy-Saint-Antoine
(48.6830°N, 2.5330°E)
Time: 06:44:41
(UTC+01:00)

ISS - Visible Passes

Search period start: 11 December 2017 00:00
Search period end: 21 December 2017 00:00
Orbit: 402 x 407 km, 51.6° (Epoch: 11 December)

Date Brightness Start Highest point End Pass type
(mag) Time Alt. Az. Time Alt. Az. Time Alt. Az.
11 Dec -3.8 18:10:29 10° WNW 18:13:46 65° NNE 18:15:48 21° E visible
11 Dec -1.1 19:47:07 10° W 19:48:28 20° W 19:48:28 20° W visible
12 Dec -3.3 18:54:45 10° WNW 18:57:59 55° SSW 18:58:40 44° SSE visible
13 Dec -3.8 18:02:27 10° WNW 18:05:45 83° SSW 18:09:02 10° ESE visible
13 Dec -1.2 19:39:31 10° W 19:41:44 18° SW 19:41:44 18° SW visible
14 Dec -1.9 18:46:51 10° W 18:49:46 29° SW 18:52:21 12° SSE visible
15 Dec -2.7 17:54:25 10° WNW 17:57:36 46° SSW 18:00:46 10° SE visible
16 Dec -0.8 18:39:22 10° W 18:41:23 15° SW 18:43:24 10° S visible
17 Dec -1.3 17:46:32 10° W 17:49:17 25° SW 17:52:01 10° SSE visible
19 Dec -0.3 17:39:13 10° WSW 17:40:47 13° SW 17:42:21 10° SSW visible
